Location: Azul
(36.7830°S, 59.8500°W)
Time: 02:13:55
(UTC-03:00)

CAS-4A - Pass Details

Date: 31 October 2021
Orbit: 529 x 539 km, 43.0° (Epoch: 04 December)

Event Time Altitude Azimuth Distance (km) Brightness Sun altitude
Exits shadow 03:49:07 27° 220° (SW) 1,042 ? -22.8°
Maximum altitude 03:50:50 43° 166° (SSE) 759 ? -22.5°
Drops below altitude 10° 03:54:46 10° 93° (E) 1,788 ? -21.9°
Sets 03:57:05 0° 86° (E) 2,676 ? -21.6°
